[[{"header":{"parameterUnit":"m.s-1","parameterCategory":1,"la1":30.2991,"la2":30.254,"lo1":-89.0895,"lo2":-89.0444,"dy":0.0017,"dx":0.0017,"nx":28,"ny":28,"refTime":"2025-04-17T21:00:00:Z","depth":0,"parameterNumber":2,"parameterNumberName":"U-component_of_WINDS"},"data":[0,0,0,0,0,0,0,0,0,0,0,0,0,0,0,0,0,0,0,0,0,0,0,0,0,0,0,0,0,0,0,0,0,0,0,0,0,0,0,0,0,0,0,0,0,0,0,0,0,0,0,0,0,0,0,0,0,0,-3.5996,-3.5998,0,-3.6163,-3.6165,-3.6166,-3.6177,-3.6175,-3.6173,-3.6171,-3.634,-3.6346,-3.6352,0,0,0,0,0,0,0,0,0,0,0,0,0,-3.5686,-3.5691,-3.5996,-3.5998,-3.6,-3.6162,-3.6165,-3.6167,-3.6177,-3.6175,-3.6173,-3.617,-3.6338,-3.6345,-3.6353,0,0,0,0,0,0,0,0,0,0,0,0,0,-3.5833,-3.5693,-3.5996,-3.6025,-3.6029,-3.6162,-3.6165,-3.6168,-3.6178,-3.6175,-3.6172,-3.6169,-3.6335,-3.6344,-3.6354,-3.6468,0,0,-3.6382,-3.6386,0,0,0,0,0,0,0,0,-3.5825,-3.5844,-3.6018,-3.6023,-3.6028,-3.6146,-3.6117,-3.6268,-3.6178,-3.6121,-3.6171,-3.6168,-3.6277,-3.6291,-3.6329,-3.6476,-3.6483,-3.6383,-3.6389,-3.6393,-3.6395,0,0,0,0,0,0,0,-3.5814,-3.5837,-3.6062,-3.6021,-3.6027,-3.6029,-3.6047,-3.6146,-3.6213,-3.6126,-3.6127,-3.6147,-3.628,-3.632,-3.6333,-3.6485,-3.6383,-3.6391,-3.6397,-3.64,-3.6735,-3.6738,0,0,0,0,0,0,-3.5799,-3.5829,-3.6057,-3.6067,-3.5917,-3.6037,-3.6057,-3.6111,-3.6212,-3.6225,-3.6149,-3.6147,-3.6305,-3.6322,-3.6339,-3.6479,-3.6393,-3.6401,-3.6407,-3.6732,-3.6736,-3.6739,0,0,0,0,0,0,-3.5792,-3.5819,-3.605,-3.5948,-3.5978,-3.6046,-3.6106,-3.6116,-3.6156,-3.623,-3.6241,-3.6178,-3.6304,-3.6326,-3.6436,-3.6485,-3.6406,-3.6414,-3.6728,-3.6733,-3.6738,-3.6761,0,0,0,0,0,0,-3.5783,-3.5817,-3.5861,-3.5949,-3.5983,-3.6145,-3.6109,-3.6121,-3.6172,-3.6171,-3.626,-3.6272,-3.6303,-3.6422,-3.6445,-3.6497,-3.6421,-3.6724,-3.673,-3.6736,-3.6756,-3.6766,-3.6775,0,0,0,0,0,-3.5772,-3.586,-3.5863,-3.589,-3.604,-3.6147,-3.6167,-3.6202,-3.6176,-3.6221,-3.6269,-3.6269,-3.6476,-3.6433,-3.646,-3.6514,-3.6721,-3.6728,-3.6736,-3.6752,-3.6764,-3.6775,0,0,0,0,0,0,-3.5775,-3.5872,-3.5876,-3.5996,-3.6064,-3.6149,-3.6207,-3.6214,-3.6289,-3.6284,-3.6324,-3.6344,-3.6453,-3.6495,-3.6445,-3.6631,-3.6596,-3.6609,-3.6599,-3.6611,-3.662,-3.6608,-3.6429,0,0,0,0,0,-3.579,-3.5869,-3.595,-3.6047,-3.6081,-3.6138,-3.6186,-3.6208,-3.6279,-3.6307,-3.6363,-3.6431,-3.6512,-3.6564,-3.6642,-3.6763,-3.6782,-3.6814,-3.6823,-3.683,-3.684,-3.6907,-3.6922,-3.6764,-3.6763,-3.6763,0,0,-3.582,-3.5883,-3.5931,-3.605,-3.6104,-3.6186,-3.6162,-3.6249,-3.6309,-3.632,-3.6428,-3.6471,-3.655,-3.6666,-3.672,-3.6704,-3.6889,-3.684,-3.6845,-3.6851,-3.6916,-3.6931,-3.6945,-3.6769,-3.6768,-3.6767,0,0,-3.5918,-3.5974,-3.6062,-3.6117,-3.6201,-3.6239,-3.626,-3.6345,-3.6374,-3.6483,-3.6493,-3.6566,-3.6704,-3.676,-3.6807,-3.6927,-3.693,-3.6952,-3.6999,-3.7064,-3.7077,-3.7088,-3.713,-3.7145,-3.6962,-3.6962,-3.6962,0,-3.5945,-3.6069,-3.6105,-3.6193,-3.6244,-3.6259,-3.6348,-3.64,-3.6505,-3.654,-3.6522,-3.6696,-3.6751,-3.688,-3.6909,-3.6947,-3.6972,-3.6941,-3.7072,-3.7084,-3.7095,-3.7136,-3.7152,-3.6964,-3.6964,-3.6964,-3.6963,0,-3.6098,-3.6183,-3.6244,-3.6346,-3.6405,-3.6492,-3.6542,-3.6597,-3.6614,-3.6653,-3.6764,-3.683,-3.6922,-3.6955,-3.6972,-3.7087,-3.7075,-3.7064,-3.7029,-3.7111,-3.715,-3.7166,-3.6967,-3.6966,-3.6966,-3.6965,0,0,-3.6201,-3.6323,-3.6344,-3.6391,-3.6485,-3.6552,-3.664,-3.6731,-3.6777,-3.6849,-3.6924,-3.7042,-3.7032,-3.7085,-3.7109,-3.7165,-3.7256,-3.7148,-3.715,-3.7165,-3.7387,-3.7394,-3.7412,-3.7259,-3.7263,-3.7265,-3.738,0,-3.6308,-3.6466,-3.6503,-3.6638,-3.6718,-3.6733,-3.681,-3.6876,-3.6916,-3.6989,-3.7032,-3.7114,-3.7096,-3.7128,-3.7185,-3.7233,-3.7301,-3.7225,-3.7328,-3.7332,-3.7307,-3.7432,-3.744,-3.7546,-3.7396,-3.7398,-3.74,0,-3.6455,-3.6531,-3.6675,-3.6759,-3.6794,-3.6862,-3.6949,-3.7018,-3.7093,-3.7118,-3.7178,-3.7196,-3.7288,-3.725,-3.7377,-3.7325,-3.7369,-3.7399,-3.7404,-3.7414,-3.737,-3.7445,-3.758,-3.7596,-3.7425,-3.7423,-3.7421,0,-3.6515,-3.6653,-3.6757,-3.6797,-3.6898,-3.6946,-3.699,-3.7062,-3.7115,-3.7191,-3.7225,-3.731,-3.7357,-3.7422,-3.7462,-3.7431,-3.7587,-3.7552,-3.7609,-3.7608,-3.764,-3.7637,-3.7783,-3.767,-3.767,-3.767,-3.7669,0,-3.6631,-3.6718,-3.6786,-3.6849,-3.6948,-3.6989,-3.7085,-3.7129,-3.7194,-3.7266,-3.7285,-3.7352,-3.7402,-3.7476,-3.7508,-3.7609,-3.763,-3.7652,-3.7659,-3.765,-3.7647,-3.7679,-3.7672,-3.7674,-3.7673,-3.7672,-3.7671,0,-3.6714,-3.6763,-3.6877,-3.6964,-3.6988,-3.7056,-3.713,-3.7193,-3.7233,-3.7325,-3.7348,-3.7412,-3.75,-3.7547,-3.7658,-3.7679,-3.7792,-3.7795,-3.7767,-3.7769,-3.7824,-3.7818,-3.7995,-3.802,-3.7891,-3.7892,-3.7893,0,-3.6784,-3.6851,-3.6946,-3.6996,-3.7041,-3.7122,-3.7176,-3.722,-3.7275,-3.7366,-3.7418,-3.7508,-3.7582,-3.7722,-3.7778,-3.7862,-3.7867,-3.7924,-3.788,-3.7869,-3.7868,-3.7863,-3.787,-3.7931,-3.7932,-3.7933,-3.7934,0,-3.6903,-3.6925,-3.7002,-3.7089,-3.7153,-3.7223,-3.7292,-3.7332,-3.7387,-3.7448,-3.7539,-3.7597,-3.771,-3.7799,-3.7888,-3.7933,-3.7943,-3.7947,-3.7965,-3.7956,-3.7936,-3.7947,-3.7787,-3.7943,-3.7942,-3.7941,-3.7941,-3.794,-3.6982,-3.7043,-3.7119,-3.7205,-3.7262,-3.7326,-3.7389,-3.7438,-3.7515,-3.7611,-3.7632,-3.7728,-3.7802,-3.7923,-3.7971,-3.8046,-3.8035,-3.8061,-3.8067,-3.8073,-3.8075,-3.7925,-3.8063,-3.8063,-3.8063,-3.8062,-3.8062,0,-3.7102,-3.7152,-3.7231,-3.7328,-3.7395,-3.7399,-3.7476,-3.7532,-3.7617,-3.7686,-3.7758,-3.7863,-3.795,-3.8012,-3.81,-3.8149,-3.8155,-3.817,-3.8167,-3.8177,-3.808,-3.8056,-3.8164,-3.8164,-3.8164,-3.8164,-3.8163,-3.8163,-3.7173,-3.7276,-3.7306,-3.7438,-3.7487,-3.7582,-3.7626,-3.7685,-3.774,-3.7857,-3.7929,-3.7969,-3.8036,-3.8129,-3.8208,-3.8224,-3.8256,-3.827,-3.8287,-3.8195,-3.8184,-3.8173,-3.8151,-3.8277,-3.8277,-3.8377,-3.8378,-3.8379]},{"header":{"parameterUnit":"m.s-1","parameterCategory":1,"la1":30.2991,"la2":30.254,"lo1":-89.0895,"lo2":-89.0444,"dy":0.0017,"dx":0.0017,"nx":28,"ny":28,"refTime":"2025-04-17T21:00:00:Z","depth":0,"parameterNumber":3,"parameterNumberName":"V-component_of_WINDS"},"data":[0,0,0,0,0,0,0,0,0,0,0,0,0,0,0,0,0,0,0,0,0,0,0,0,0,0,0,0,0,0,0,0,0,0,0,0,0,0,0,0,0,0,0,0,0,0,0,0,0,0,0,0,0,0,0,0,0,0,2.8847,2.8848,0,2.8934,2.8935,2.8936,2.8937,2.8936,2.8935,2.8934,2.9023,2.9027,2.903,0,0,0,0,0,0,0,0,0,0,0,0,0,2.8686,2.8689,2.8847,2.8848,2.8849,2.8934,2.8935,2.8936,2.8937,2.8936,2.8935,2.8934,2.9022,2.9026,2.903,0,0,0,0,0,0,0,0,0,0,0,0,0,2.8763,2.869,2.8847,2.886,2.8862,2.8933,2.8935,2.8936,2.8938,2.8936,2.8934,2.8933,2.9021,2.9026,2.9031,2.9095,0,0,2.9046,2.9049,0,0,0,0,0,0,0,0,2.8758,2.8768,2.8857,2.8859,2.8862,2.8923,2.8911,2.8989,2.8938,2.8909,2.8934,2.8932,2.8991,2.8999,2.9019,2.9099,2.9103,2.9047,2.905,2.9052,2.9054,0,0,0,0,0,0,0,2.8753,2.8765,2.8881,2.8858,2.8861,2.8863,2.8872,2.8926,2.8958,2.8911,2.8912,2.8922,2.8992,2.9014,2.9021,2.9104,2.9047,2.9051,2.9054,2.9056,2.9245,2.9247,0,0,0,0,0,0,2.8745,2.876,2.8879,2.8884,2.8805,2.8867,2.8877,2.8905,2.8958,2.8964,2.8923,2.8922,2.9006,2.9015,2.9024,2.9105,2.9052,2.9057,2.906,2.9243,2.9246,2.9248,0,0,0,0,0,0,2.8741,2.8755,2.8875,2.8822,2.8838,2.8871,2.8903,2.8908,2.8929,2.8967,2.8973,2.8939,2.9005,2.9017,2.9078,2.9108,2.9059,2.9064,2.9241,2.9244,2.9247,2.9265,0,0,0,0,0,0,2.8736,2.8754,2.8777,2.8823,2.884,2.8927,2.8904,2.891,2.8938,2.8936,2.8983,2.8989,2.9005,2.907,2.9083,2.9114,2.9068,2.9239,2.9242,2.9246,2.9262,2.9268,2.9273,0,0,0,0,0,2.8731,2.8778,2.8779,2.8793,2.8871,2.8928,2.8939,2.8955,2.894,2.8965,2.899,2.8988,2.9102,2.9077,2.9091,2.9123,2.9237,2.9241,2.9246,2.9259,2.9267,2.9273,0,0,0,0,0,0,2.8735,2.8784,2.8785,2.8849,2.8885,2.8929,2.896,2.8962,2.9003,2.9,2.9019,2.903,2.9092,2.9114,2.9084,2.919,2.9168,2.9175,2.9173,2.9181,2.9187,2.918,2.9072,0,0,0,0,0,2.8744,2.8786,2.8827,2.8879,2.8897,2.8926,2.8951,2.8962,2.8999,2.9014,2.9043,2.9081,2.9125,2.9154,2.9197,2.9265,2.9277,2.9295,2.9301,2.9305,2.9312,2.9352,2.9361,2.9262,2.9262,2.9262,0,0,2.8761,2.8794,2.8819,2.8881,2.891,2.8954,2.8938,2.8985,2.9019,2.9021,2.9082,2.9105,2.9148,2.9213,2.9244,2.9234,2.9342,2.9311,2.9314,2.9318,2.9358,2.9367,2.9375,2.9265,2.9265,2.9264,0,0,2.8817,2.8845,2.8893,2.8922,2.8967,2.8986,2.8997,2.9042,2.9058,2.9118,2.9122,2.9163,2.9239,2.927,2.9296,2.9367,2.9368,2.9381,2.9411,2.9451,2.9458,2.9465,2.9493,2.9502,2.9387,2.9387,2.9387,0,2.8833,2.89,2.8917,2.8965,2.8993,2.8999,2.9049,2.9077,2.9133,2.9153,2.9141,2.9238,2.9267,2.9342,2.936,2.938,2.9395,2.9375,2.9456,2.9463,2.947,2.9496,2.9506,2.9388,2.9388,2.9388,2.9388,0,2.8919,2.8965,2.8999,2.9054,2.9086,2.9135,2.9161,2.9192,2.92,2.9221,2.9284,2.932,2.9372,2.939,2.9398,2.9467,2.946,2.9451,2.943,2.948,2.9506,2.9516,2.939,2.939,2.939,2.9389,0,0,2.8978,2.9044,2.9056,2.9082,2.9133,2.917,2.922,2.9271,2.9298,2.9337,2.9381,2.9447,2.9441,2.947,2.9482,2.9516,2.9574,2.9505,2.9506,2.9518,2.9655,2.9661,2.9672,2.9574,2.9576,2.9578,2.9652,0,2.904,2.9128,2.9147,2.9224,2.9269,2.9276,2.932,2.9357,2.9379,2.9421,2.9445,2.9492,2.9479,2.9498,2.9532,2.9559,2.9602,2.9554,2.9617,2.9619,2.9606,2.9685,2.9691,2.9759,2.9661,2.9663,2.9664,0,2.9123,2.9166,2.9248,2.9295,2.9315,2.9354,2.9404,2.9443,2.9486,2.95,2.9535,2.9544,2.9598,2.9574,2.9651,2.9618,2.9645,2.9663,2.9666,2.9673,2.9645,2.9695,2.9781,2.9791,2.9679,2.9678,2.9677,0,2.916,2.9238,2.9298,2.932,2.9376,2.9404,2.9429,2.9471,2.9501,2.9545,2.9566,2.9615,2.9643,2.9682,2.9705,2.9685,2.9781,2.9757,2.9795,2.9794,2.9814,2.9813,2.9906,2.983,2.983,2.983,2.983,0,2.9228,2.9278,2.9316,2.9352,2.941,2.9432,2.9488,2.9513,2.9551,2.9594,2.9603,2.9644,2.9671,2.9716,2.9734,2.9796,2.9808,2.9822,2.9827,2.9822,2.982,2.984,2.9836,2.9833,2.9832,2.9832,2.9831,0,2.9279,2.9305,2.9371,2.942,2.9434,2.9475,2.9517,2.9554,2.9577,2.9632,2.9646,2.9682,2.9736,2.9763,2.9829,2.9842,2.9913,2.9913,2.9898,2.99,2.9936,2.9933,3.0046,3.0063,2.9975,2.9976,2.9976,0,2.932,2.9359,2.9413,2.9443,2.9469,2.9516,2.9548,2.9572,2.9605,2.9659,2.969,2.9744,2.9789,2.9875,2.9908,2.996,2.9963,2.9999,2.997,2.9965,2.9965,2.9963,2.9968,3.0004,3.0005,3.0005,3.0006,0,2.9392,2.9404,2.9449,2.9501,2.9538,2.958,2.962,2.9644,2.9675,2.9712,2.9767,2.9802,2.9871,2.9926,2.9981,3.0008,3.0013,3.0015,3.0027,3.0022,3.0013,3.002,2.9913,3.0012,3.0012,3.0011,3.0011,3.0011,2.9441,2.9477,2.9521,2.9572,2.9606,2.9644,2.9683,2.9711,2.9758,2.9816,2.9827,2.9887,2.9932,3.0006,3.0035,3.0083,3.0075,3.0092,3.0096,3.01,3.0103,3.0005,3.0093,3.0093,3.0093,3.0093,3.0093,0,2.9515,2.9544,2.9591,2.9648,2.9689,2.9691,2.9737,2.9771,2.9823,2.9864,2.9909,2.9974,3.0028,3.0066,3.0122,3.0153,3.0157,3.0167,3.0165,3.0172,3.0106,3.0091,3.0163,3.0163,3.0163,3.0163,3.0163,3.0163,2.9558,2.962,2.9638,2.9718,2.9747,2.9806,2.9832,2.9869,2.9902,2.9975,3.002,3.0044,3.0085,3.0144,3.0195,3.0205,3.0225,3.0235,3.0246,3.0183,3.0176,3.0169,3.0155,3.0239,3.0239,3.0308,3.0308,3.0309]}]]